Weather History for Paducah, KY

Change the Weather History Date:

Wednesday, June 4, 2014

  Actual Average Record
Temperature  
Mean Temperature 81 °F 73 °F  
Max Temperature 90 °F 83 °F 98 °F (2011)
Min Temperature 71 °F 62 °F 47 °F (1964)
Degree Days  
Heating Degree Days 0 0  
Month to date heating degree days 0 0  
Since 1 June heating degree days 0 0  
Since 1 July heating degree days 4541 4128  
Cooling Degree Days 16 8  
Month to date cooling degree days 59 30  
Year to date cooling degree days 337 202  
Since 1 June cooling degree days 59 30  
Growing Degree Days 30 (Base 50)    
Moisture  
Dew Point 71 °F    
Average Humidity 73    
Maximum Humidity 93    
Minimum Humidity 52    
Precipitation  
Precipitation 2.75 in 0.14 in 2.75 in (2014)
Month to date precipitation 3.49 0.56  
Year to date precipitation 23.68 21.78  
Snow  
Snow 0.00 in 0.00 in T in (1993)
Month to date snowfall 0.0 0.0  
Since 1 June snowfall 0.0 0.0  
Since 1 July snowfall 18.5 9.1  
Snow Depth 0.00 in    
Sea Level Pressure  
Sea Level Pressure 29.81 in    
Wind  
Wind Speed 9 mph (SSW)    
Max Wind Speed 25 mph    
Max Gust Speed 34 mph    
Visibility 7 miles    
Events Fog , Rain , Thunderstorm    
T = Trace of Precipitation, MM = Missing Value Source: NWS Daily Summary

Daily Weather History Graph

Daily Weather History Graph

Search for Another Location

Airport:

Trip Planner

Search our weather history database for the weather conditions in past years. The results will help you decide how hot, cold, wet, or windy it might be!

Date:

Astronomy

Jun. 04, 2014 Rise Set
Actual Time 5:35 AM CDT 8:11 PM CDT
Civil Twilight 5:05 AM CDT 8:41 PM CDT
Nautical Twilight 4:27 AM CDT 9:19 PM CDT
Astronomical Twilight 3:45 AM CDT 10:01 PM CDT
Moon 11:48 AM CDT (6/4) 12:15 AM CDT (6/4)
Length of Visible Light 15h 36m
Length of Day
14h 35m
Waxing Crescent, 39% of the Moon is Illuminated
Jun 4
Waxing Crescent
Jun 5
First Quarter
Jun 12
Full
Jun 19
Last Quarter
Jun 27
New

Hourly Weather History & Observations

Time (CDT) Temp. Heat Index Dew Point Humidity Pressure Visibility Wind Dir Wind Speed Gust Speed Precip Events Conditions
12:53 AM 79.0 °F - 71.1 °F 77% 29.88 in 10.0 mi South 4.6 mph - N/A   Clear
1:53 AM 78.1 °F - 71.1 °F 79% 29.88 in 10.0 mi SSW 4.6 mph - N/A   Clear
2:53 AM 77.0 °F - 71.1 °F 82% 29.89 in 10.0 mi SSW 6.9 mph - N/A   Clear
3:53 AM 77.0 °F - 71.1 °F 82% 29.90 in 10.0 mi SSW 5.8 mph - N/A   Clear
4:53 AM 75.9 °F - 71.1 °F 85% 29.88 in 10.0 mi South 4.6 mph - N/A   Clear
5:53 AM 75.9 °F - 71.1 °F 85% 29.86 in 9.0 mi SSW 8.1 mph - N/A   Clear
6:53 AM 77.0 °F - 71.1 °F 82% 29.89 in 10.0 mi SW 9.2 mph - N/A   Clear
7:53 AM 77.0 °F - 71.1 °F 82% 29.93 in 9.0 mi SW 9.2 mph - N/A   Scattered Clouds
8:53 AM 78.1 °F - 71.1 °F 79% 29.93 in 9.0 mi WSW 10.4 mph - N/A   Clear
9:53 AM 77.0 °F - 72.0 °F 84% 29.85 in 9.0 mi SSW 9.2 mph - 0.00 in Rain Light Rain
10:53 AM 80.1 °F 83.8 °F 72.0 °F 76% 29.82 in 10.0 mi SW 17.3 mph 24.2 mph 0.00 in   Partly Cloudy
11:53 AM 84.9 °F 90.1 °F 71.1 °F 63% 29.77 in 10.0 mi SW 16.1 mph 26.5 mph N/A   Clear
12:53 PM 86.0 °F 92.2 °F 72.0 °F 63% 29.80 in 10.0 mi SW 16.1 mph 26.5 mph N/A   Partly Cloudy
1:53 PM 86.0 °F 91.5 °F 71.1 °F 61% 29.80 in 10.0 mi WSW 18.4 mph 24.2 mph N/A   Mostly Cloudy
2:53 PM 86.0 °F 92.2 °F 72.0 °F 63% 29.79 in 10.0 mi WSW 16.1 mph - N/A   Mostly Cloudy
3:53 PM 87.1 °F 93.6 °F 72.0 °F 61% 29.75 in 10.0 mi SW 6.9 mph - N/A   Scattered Clouds
4:53 PM 89.1 °F 94.1 °F 70.0 °F 53% 29.75 in 10.0 mi WSW 18.4 mph 26.5 mph N/A   Scattered Clouds
5:53 PM 88.0 °F 93.8 °F 71.1 °F 57% 29.74 in 10.0 mi WSW 12.7 mph - N/A   Partly Cloudy
6:53 PM 86.0 °F 91.5 °F 71.1 °F 61% 29.72 in 10.0 mi SW 10.4 mph - N/A   Partly Cloudy
7:53 PM 84.0 °F 89.0 °F 71.1 °F 65% 29.74 in 10.0 mi SSW 5.8 mph - N/A   Mostly Cloudy
8:42 PM 82.9 °F 87.5 °F 71.1 °F 67% 29.72 in 10.0 mi SSW 6.9 mph - N/A Thunderstorm Mostly Cloudy
8:51 PM 82.4 °F 87.2 °F 71.6 °F 70% 29.71 in 10.0 mi SSW 5.8 mph - N/A Thunderstorm Thunderstorm
8:53 PM 82.9 °F 87.5 °F 71.1 °F 67% 29.70 in 10.0 mi Calm Calm - N/A Thunderstorm Thunderstorm
9:10 PM 75.0 °F - 70.0 °F 84% 29.77 in 1.2 mi North 23.0 mph 31.1 mph 0.03 in Rain , Thunderstorm Heavy Thunderstorms and Rain
9:13 PM 73.9 °F - 70.0 °F 87% 29.77 in 0.8 mi North 18.4 mph 31.1 mph 0.29 in Rain , Thunderstorm Heavy Thunderstorms and Rain
9:24 PM 72.0 °F - 69.1 °F 91% 29.76 in 0.5 mi ENE 15.0 mph 27.6 mph 0.66 in Fog , Rain , Thunderstorm Heavy Thunderstorms and Rain
9:28 PM 73.0 °F - 69.1 °F 87% 29.76 in 1.0 mi NNE 21.9 mph 27.6 mph 0.68 in Rain , Thunderstorm Heavy Thunderstorms and Rain
9:37 PM 73.0 °F - 70.0 °F 90% 29.80 in 1.0 mi NW 5.8 mph - 0.87 in Rain , Thunderstorm Heavy Thunderstorms and Rain
9:44 PM 72.0 °F - 70.0 °F 93% 29.78 in 0.5 mi South 5.8 mph - 1.22 in Fog , Rain , Thunderstorm Heavy Thunderstorms and Rain
9:53 PM 71.6 °F - 69.8 °F 94% 29.80 in 1.0 mi East 4.6 mph - N/A Rain , Thunderstorm Heavy Thunderstorms and Rain
10:14 PM 72.0 °F - 69.1 °F 91% 29.78 in 3.0 mi ESE 6.9 mph - 0.28 in Rain , Thunderstorm Light Thunderstorms and Rain
10:20 PM 72.0 °F - 70.0 °F 93% 29.80 in 2.5 mi SW 5.8 mph - 0.28 in Rain , Thunderstorm Thunderstorms and Rain
10:22 PM 72.0 °F - 70.0 °F 93% 29.79 in 1.8 mi South 6.9 mph - 0.33 in Rain , Thunderstorm Heavy Thunderstorms and Rain
10:31 PM 72.0 °F - 69.1 °F 91% 29.79 in 3.0 mi East 5.8 mph - 0.43 in Rain , Thunderstorm Light Thunderstorms and Rain
10:53 PM 72.0 °F - 69.1 °F 91% 29.78 in 8.0 mi ENE 3.5 mph - 0.48 in Rain , Thunderstorm Light Thunderstorms and Rain
11:16 PM 72.0 °F - 69.1 °F 91% 29.81 in 7.0 mi Variable 4.6 mph - 0.13 in Rain , Thunderstorm Light Rain
11:25 PM 72.0 °F - 69.1 °F 91% 29.82 in 5.0 mi SW 4.6 mph - 0.15 in Rain , Thunderstorm Thunderstorms and Rain
11:43 PM 72.0 °F - 69.1 °F 91% 29.82 in 6.0 mi Calm Calm - 0.21 in Rain , Thunderstorm Rain
11:53 PM 72.0 °F - 69.1 °F 91% 29.80 in 10.0 mi ENE 4.6 mph - 0.22 in Rain Light Rain